EUTELSAT 117 WEST A

Last updated on Thu Oct 30 2025 00:02:49 GMT+0000 (Coordinated Universal Time)

1 39122U 13012A 25302.39367522 -.00000004 00000+0 00000+0 0 9996 2 39122 0.0161 314.1409 0002929 267.5226 201.2774 1.00273755 46116
UTC large
Height (km)
Speed (km/s)
/
Latitude / Longitude
Inclination (degrees)
Orbital Period (minutes)
Azimuth
Elevation
Range (km)
Doppler Factor

Next 0 passes for location: London (51.5072 / 0.1276)

Sorry there are no passes over London.